Home   Weather   Wanon Niwat   Past weeks

Flag for Thailand Past Weather in Wanon Niwat, Thailand — Yesterday and Last 2 Weeks

Now
64 °F

Clear.


Feels Like: 64 °F
Forecast: 66 / 83 °F
Wind: No wind

Location: Udon Thani Airport

Current Time: Dec 7, 2016 at 4:49:59 am

Latest Report: Dec 7, 2016 at 4:00 am


Visibility: 10 mi

Pressure: 29.95 "Hg

Humidity: 78%

Dew Point: 57 °F

Location of Wanon NiwatLocation

Past Weather in Wanon Niwat — Graph

°F

Wanon Niwat Temperature Yesterday

Maximum temperature yesterday: 86 °F (at 1:00 pm)
Minimum temperature yesterday: 68 °F (at 11:00 pm)
Average temperature yesterday: 76 °F

High & Low Weather Summary for the Past Weeks

 TemperatureHumidityPressure
High91 °F (Nov 23, 4:00 pm)100% (Nov 22, 4:00 am)30.12 "Hg (Nov 22, 4:00 am)
Low61 °F (Dec 1, 6:00 am)45% (Nov 28, 2:00 pm)29.74 "Hg (Nov 22, 4:00 pm)
Average76 °F73%29.96 "Hg
* Reported Nov 22 3:00 am — Dec 7 3:00 am, Wanon Niwat, Weather by CustomWeather, © 2016

Note: Actual official high and low records may vary slightly from our data, if they occured in-between our weather recording intervals... More about our weather records

Advertising

Wanon Niwat Weather History for the Previous 24 Hours

Scroll right to see more
 ConditionsComfort  
Time TempWeatherWind HumidityBarometerVisibility
3:00 am
Wed, Dec 7
64 °FClear.3 mph78%29.98 "Hg10 mi
2:00 am64 °FClear.No wind78%29.98 "Hg10 mi
12:00 am68 °FPassing clouds.3 mph69%30.01 "HgN/A
11:00 pm
Tue, Dec 6
68 °FClear.3 mph73%30.04 "Hg10 mi
9:00 pm72 °FClear.3 mph65%30.04 "Hg4 mi
8:00 pm73 °FClear.8 mph61%30.01 "Hg4 mi
7:00 pm75 °FClear.7 mph57%29.98 "Hg4 mi
6:00 pm77 °FClear.7 mph54%29.98 "Hg4 mi
5:00 pm81 °FClear.8 mph51%29.95 "Hg4 mi
4:00 pm82 °FPassing clouds.8 mph51%29.95 "Hg4 mi
3:00 pm84 °FScattered clouds.8 mph48%29.95 "Hg4 mi
2:00 pm86 °FClear.8 mph46%29.95 "Hg4 mi
1:00 pm86 °FClear.8 mph46%29.98 "Hg5 mi
12:00 pm84 °FClear.8 mph48%30.04 "Hg4 mi
11:00 am82 °FClear.9 mph48%30.04 "Hg5 mi
10:00 am81 °FPassing clouds.7 mph54%30.07 "HgN/A
9:00 am75 °FScattered clouds.5 mph69%30.07 "HgN/A
8:00 am72 °FMostly cloudy.No wind73%30.04 "HgN/A
7:00 am72 °FPartly sunny.No wind78%30.04 "HgN/A
6:00 am72 °FPassing clouds.No wind73%30.01 "HgN/A
5:00 am72 °FPassing clouds.No wind78%30.01 "HgN/A
4:00 am72 °FClear.1 mph78%30.01 "Hg10 mi
Weather by CustomWeather, © 2016

See weather overviewHow to use our weather pages